Vorticity
nan nan nan nan nan nan nan nan nan nan nan nan nan nan nan nan nan nan nan nan nan nan nan nan nan nan nan nan nan nan nan nan nan nan nan nan nan nan nan nan nan nan nan
nan 6 5 6 8 10 8 6 6 5 7 6 7 9 7 8 6 4 7 10 9 3 2 4 7 8 9 8 7 7 7 8 8 7 7 8 8 7 7 7 8 7 nan
nan 4 10 7 7 5 13 7 5 7 4 7 7 9 8 7 9 10 5 9 12 11 5 3 2 5 6 7 7 7 8 8 9 9 10 8 7 8 8 8 8 8 nan
nan 7 6 8 7 9 6 6 9 7 8 9 6 8 8 9 11 9 7 7 9 14 14 8 1 3 8 8 6 6 7 7 6 8 12 10 8 7 7 7 8 8 nan
nan 8 8 7 5 5 8 8 9 7 7 7 10 10 5 10 13 11 9 7 11 7 13 15 8 5 5 8 8 6 4 5 5 5 7 11 11 8 8 7 8 8 nan
nan 7 5 6 10 7 6 4 5 10 10 6 10 10 10 12 4 12 11 11 10 6 6 10 11 11 10 5 7 7 4 1 4 7 6 8 9 10 9 9 7 8 nan
nan 6 7 9 7 6 8 10 9 6 5 10 9 7 11 12 11 11 7 11 7 11 8 6 6 9 15 14 7 3 5 9 6 5 7 6 7 9 10 9 9 9 nan
nan 6 6 6 8 9 8 7 6 7 12 8 5 9 11 9 13 12 11 8 10 14 12 10 7 6 8 15 17 10 3 4 7 8 6 6 7 7 8 8 10 10 nan
nan 5 5 8 7 8 9 11 9 5 6 12 10 6 8 6 9 12 10 8 10 6 10 13 11 8 8 10 11 14 11 7 5 6 6 6 8 8 7 7 8 9 nan
nan 8 9 8 4 4 9 11 8 5 7 7 9 10 9 4 6 12 10 5 9 11 6 7 12 11 9 9 10 11 12 10 7 6 6 6 7 7 7 7 8 8 nan
nan 8 8 8 8 7 6 6 6 9 7 6 5 6 9 10 11 8 7 11 8 4 10 11 9 12 13 6 12 14 12 10 11 9 8 5 6 7 6 7 8 8 nan
nan 10 9 8 7 8 6 8 9 8 8 8 6 9 7 7 9 8 8 9 5 5 7 10 13 11 9 9 11 17 17 11 9 8 9 10 6 5 7 8 7 7 nan
nan 14 10 6 9 8 7 8 7 9 10 9 8 9 10 8 9 9 6 9 10 10 8 10 12 11 6 9 13 17 15 17 11 9 10 10 9 8 6 6 8 9 nan
nan 6 9 8 9 8 9 8 9 9 9 8 10 8 8 10 14 12 8 7 9 13 11 11 9 10 10 9 18 12 12 17 11 11 11 11 10 8 8 8 8 7 nan
nan 6 6 8 9 10 9 9 9 9 8 7 9 11 11 9 7 13 13 9 8 8 10 9 12 7 7 10 14 10 13 16 12 10 9 10 10 9 8 9 10 8 nan
nan 9 9 10 10 10 10 9 10 10 7 6 6 8 12 14 12 9 8 11 9 7 6 8 13 10 8 10 10 6 9 15 16 9 9 9 9 10 9 9 10 11 nan
nan 8 9 10 11 11 11 9 6 8 11 8 7 6 8 12 10 11 10 7 9 8 5 4 10 17 10 7 9 9 8 8 18 17 9 9 10 10 10 10 10 11 nan
nan 9 9 9 10 10 10 10 8 10 10 8 7 7 7 9 7 6 8 8 9 7 8 8 5 8 11 12 9 8 9 10 16 18 14 10 9 9 10 10 11 12 nan
nan 7 11 11 9 8 9 10 9 9 9 8 8 8 8 6 6 6 7 10 10 9 6 8 11 7 11 11 11 10 9 12 7 18 24 13 11 9 10 9 9 10 nan
nan 10 10 10 10 10 11 9 9 9 8 10 9 9 9 9 8 7 9 10 10 9 10 11 9 8 11 13 11 11 10 10 8 15 16 17 15 13 12 9 8 8 nan
nan 11 10 10 10 12 16 15 13 11 10 8 8 11 11 9 7 8 9 7 8 12 12 10 8 12 9 12 9 7 9 9 12 12 10 14 14 12 13 13 13 13 nan
nan 12 11 11 13 14 14 11 13 12 10 11 11 10 12 13 13 10 8 6 5 7 7 9 10 9 9 11 11 7 5 6 8 12 13 10 12 10 12 19 17 14 nan
nan 11 10 11 11 19 14 6 10 11 12 12 10 8 9 11 12 15 12 9 10 12 7 3 7 8 11 10 10 9 7 8 7 7 9 11 12 10 9 17 25 15 nan
nan 9 9 10 10 14 12 10 9 9 11 10 10 11 10 8 9 13 10 10 10 14 14 10 11 10 11 13 13 9 9 8 9 12 9 10 10 11 11 19 16 12 nan
nan 10 9 8 8 13 11 5 4 9 11 12 13 13 11 9 13 13 10 7 7 9 15 15 11 11 11 10 12 12 9 7 11 12 9 12 10 12 13 13 16 21 nan
nan nan nan nan nan nan nan nan nan nan nan nan nan nan nan nan nan nan nan nan nan nan nan nan nan nan nan nan nan nan nan nan nan nan nan nan nan nan nan nan nan nan nan
CAPE
1946 719 849 1829 1736 2042 1292 232 1589 1602 927 976 967 1166 1150 584 982 78 31 30 12 231 297 869 765 1053 1262 1160 1358 1475 1553 1606 1551 1629 1761 1884 1815 1883 2045 1910 1632 1828 1508
724 686 635 1924 2250 2687 1101 1464 1082 1132 1494 907 1379 1200 1136 775 1305 550 91 55 58 74 257 189 599 645 1189 1321 1455 1442 1435 1607 1683 1716 1837 1932 2084 1953 1913 1926 1848 1756 2150
1376 2226 640 1643 1651 2012 1265 2059 1870 1621 1584 1588 717 1180 1009 880 1391 648 462 116 86 160 104 96 341 598 832 1039 1029 1080 1148 1462 1281 1408 1898 1751 2069 2032 2241 1929 2028 1857 2102
2638 2347 2714 2677 2071 2373 2013 2128 2001 1885 1241 1747 2224 643 871 863 1066 599 805 608 253 64 108 276 185 272 372 661 910 1016 1285 1363 1035 1129 1218 1636 1805 2079 2324 2322 2120 2170 2127
2175 2332 1806 2762 1825 2805 2540 2540 2074 2275 2510 1419 1325 2129 1265 894 1553 1801 1551 1370 618 184 323 542 206 97 135 360 525 803 452 877 1013 1195 1271 1137 1827 2061 2317 2309 2361 2228 2272
1997 2438 1702 2333 1955 1283 1925 1541 2613 1715 2736 1748 1260 1757 1721 1886 2102 2182 2207 1360 1194 776 208 519 295 33 50 198 489 564 610 101 372 1106 1287 1368 1501 1763 2055 2216 2287 2352 2269
2377 2651 2703 2769 1974 2163 1886 2133 2174 2525 2367 2089 2746 1635 1319 1541 1716 1797 1612 1496 1316 712 586 557 633 198 36 201 263 294 424 648 320 608 1439 1412 1902 2129 2051 1916 2097 2176 2195
2730 2512 3251 2058 2380 1992 2086 2280 2291 1757 1461 1911 2205 1060 2155 1546 1411 1073 1167 1244 1130 979 1003 874 450 749 212 352 345 322 299 236 458 592 1190 1789 1740 2068 2103 1828 1922 2016 2064
2629 2531 2441 2700 2425 2319 1564 2420 2546 2579 1640 1166 1765 1336 676 1311 1077 1924 1285 1848 1891 1555 887 1418 956 711 275 263 637 530 412 178 193 784 1351 1522 1780 1922 2026 1901 1842 1904 1989
2390 2590 2854 3318 3044 2265 3441 2560 3062 2454 2563 2151 2173 1727 1302 1206 813 540 1372 1038 1317 1560 1313 1502 1185 1055 1656 536 718 576 562 487 211 347 774 1613 1596 1714 1538 1697 1790 1820 1788
2283 2304 2416 2855 3250 3118 3757 3075 3072 3514 3203 2124 2707 1732 1977 2149 1755 1968 1364 911 1011 874 741 1295 1028 1503 1526 963 1571 1150 566 522 533 412 427 725 1396 1220 1358 1166 1356 1397 1462
1921 3093 2478 3253 3707 3416 3738 2977 2929 3260 3181 2911 2573 2876 2567 1877 1675 2161 1586 1366 1293 1324 1547 1558 2214 1229 1473 741 1824 1471 1036 469 350 447 530 553 931 886 1002 1215 1175 1304 1223
1603 2736 4233 3602 3250 4263 4003 4015 3437 3234 3717 2720 2978 2579 1505 2083 1392 1704 1881 995 1094 952 913 913 1494 1774 1448 1353 1669 1633 1407 556 272 192 250 336 411 585 771 1102 1174 1356 1347
2038 2569 2260 2494 3418 3686 3541 4144 3466 3455 2823 2384 2490 2279 2313 1254 1779 2881 1687 915 1343 1361 1338 1540 1405 1156 1859 1670 2066 1197 1144 469 293 150 152 188 172 233 365 562 718 1164 1262
2426 2761 2851 3307 4201 4371 3987 4031 2956 2903 2733 2645 1841 2048 2407 1607 924 2848 1854 1181 476 1109 1265 1537 1069 1588 1210 1123 2283 1616 1685 677 230 128 66 89 129 127 110 244 365 421 667
2535 3654 3497 4073 3956 4101 3705 4117 3238 3601 3015 2067 1563 1505 1604 1142 941 1980 1843 565 1023 868 1142 1392 1478 1345 1266 1574 2303 2152 1798 1341 229 134 65 17 40 92 87 83 153 152 269
3573 3673 4287 4608 4651 4393 4020 3830 3918 3442 3103 2399 2112 1833 1541 2192 1397 1466 1620 1487 1054 1171 656 1437 1798 1901 2307 1833 1338 1600 1806 1715 1719 109 59 5 2 4 25 33 48 36 34
2648 3297 4520 5011 4603 4546 4500 4034 3617 2867 2921 2624 2141 1991 1343 1079 1058 744 851 1110 1331 1624 1355 1618 1852 2362 2732 2128 2263 2342 1517 1146 2493 701 51 0 0 0 0 0 2 1 3
2913 2810 3568 4926 4615 4468 4392 4165 4316 3858 3334 3208 2661 2089 1690 1426 1229 1301 1456 1708 1866 2252 2996 2018 1787 1570 1745 2658 1913 1961 2307 2543 2184 1185 68 12 0 0 0 0 0 0 0
2224 2587 3424 4759 4557 4497 4294 4257 3853 3974 3833 3262 3277 2845 2476 2713 2744 2632 2280 3245 2879 2406 2132 2289 2089 1766 2072 1857 1280 1683 2339 791 1012 1573 968 462 101 8 1 0 0 0 0
2849 3419 4329 4309 4613 4236 4468 4089 3565 3733 3968 3345 3488 3410 2873 2772 1996 1875 1946 2520 2321 1132 734 1268 2472 2825 2244 2246 1518 1284 1026 962 896 1052 1577 1786 1286 1156 532 0 30 0 1
3982 4131 4037 3853 3718 4042 1612 1258 1448 3947 2574 2694 3053 2899 3299 2625 1869 1277 917 631 473 754 1393 1245 884 2400 2817 2859 1545 772 1637 1625 522 1119 2104 2015 2772 1812 1935 1249 338 102 1
3522 3531 3440 3555 3869 3528 920 694 464 1519 1886 2201 2822 2453 2455 1368 1471 2752 825 534 204 83 23 786 1620 2769 2914 3022 2318 1483 1447 897 353 1243 1823 1499 2240 1857 1811 1520 292 26 0
1530 1504 1728 2077 2278 2463 1023 739 350 1183 1991 2074 1959 2129 2408 2565 2084 1501 1138 1083 1162 1648 1221 916 752 1600 2444 2957 3148 2318 2333 1976 1952 1496 1858 1156 2559 1636 1853 1858 149 17 0
759 690 765 1103 1219 1020 374 107 40 339 436 1485 2276 2604 2644 2362 1553 503 1085 1009 787 631 925 648 1533 1304 1439 1582 1339 1477 1315 1575 676 1286 1758 1449 1396 1493 1413 2057 1694 15 2
565 278 304 542 339 557 296 0 18 51 0 0 320 1048 865 2133 1659 133 910 1406 1160 880 1647 1948 1867 578 716 1246 569 992 791 355 594 501 892 1076 767 721 656 2019 1910 2169 231